User: anonymous   Login
Location: Unspecified
(0.0000°N, 0.0000°E)
Time: 20:50:49
(UTC+00:00)
Language:

S-56A Canister/Altair - Orbit

View from above orbital plane
View from above orbital plane
View from above satellite
View from above satellite

Ground track
Ground track

The orbit data is extracted from the following two-line orbital elements,

1    82U 61004B   17178.62691132 +.00000117 +00000-0 +12192-3 0  9992
2    82 038.8610 258.4615 1171309 243.8812 103.6824 12.25847493674544
Epoch (UTC): 27 June 2017 15:02:45
Eccentricity: 0.1171309
inclination: 38.8610°
perigee height: 636 km
apogee height: 2498 km
right ascension of ascending node: 258.4615°
argument of perigee: 243.8812°
revolutions per day: 12.25847493
mean anomaly at epoch: 103.6824°
orbit number at epoch: 67454

The dashed part of the orbit path shows where the satellite is in the earth's shadow,  

DLR